owner,sensor,date,latitude,longitude,air_temperature,qcFlag 
NDBC,ioos:station:NOAA.NDBC:SANF1:1,2016-02-01T16:50:00Z,24.4560,-81.8770,23.0,1111122 
NDBC,ioos:station:NOAA.NDBC:SANF1:1,2016-02-01T17:50:00Z,24.4560,-81.8770,23.5,1111122 
NDBC,ioos:station:NOAA.NDBC:SANF1:1,2016-02-01T18:50:00Z,24.4560,-81.8770,23.9,1111122 
NDBC,ioos:station:NOAA.NDBC:SANF1:1,2016-02-01T19:50:00Z,24.4560,-81.8770,24.5,1111122 
NDBC,ioos:station:NOAA.NDBC:SANF1:1,2016-02-01T21:50:00Z,24.4560,-81.8770,25.1,1111122 
NDBC,ioos:station:NOAA.NDBC:SANF1:1,2016-02-01T23:50:00Z,24.4560,-81.8770,24.7,1111122 
NDBC,ioos:station:NOAA.NDBC:SANF1:1,2016-02-02T01:50:00Z,24.4560,-81.8770,23.0,1111122 
NDBC,ioos:station:NOAA.NDBC:SANF1:1,2016-02-02T02:50:00Z,24.4560,-81.8770,23.1,1111122 
NDBC,ioos:station:NOAA.NDBC:SANF1:1,2016-02-02T03:50:00Z,24.4560,-81.8770,23.2,1111122 
NDBC,ioos:station:NOAA.NDBC:SANF1:1,2016-02-02T04:50:00Z,24.4560,-81.8770,23.0,1111122 
NDBC,ioos:station:NOAA.NDBC:SANF1:1,2016-02-02T05:50:00Z,24.4560,-81.8770,23.0,1111122 
NDBC,ioos:station:NOAA.NDBC:SANF1:1,2016-02-02T07:50:00Z,24.4560,-81.8770,23.0,1111122 
NDBC,ioos:station:NOAA.NDBC:SANF1:1,2016-02-02T08:50:00Z,24.4560,-81.8770,23.1,1111122 
NDBC,ioos:station:NOAA.NDBC:SANF1:1,2016-02-02T09:50:00Z,24.4560,-81.8770,23.3,1111122 
NDBC,ioos:station:NOAA.NDBC:SANF1:1,2016-02-02T10:50:00Z,24.4560,-81.8770,23.5,1111122 
NDBC,ioos:station:NOAA.NDBC:SANF1:1,2016-02-02T11:50:00Z,24.4560,-81.8770,24.3,1111122 
NDBC,ioos:station:NOAA.NDBC:SANF1:1,2016-02-02T13:50:00Z,24.4560,-81.8770,24.8,1111122 
NDBC,ioos:station:NOAA.NDBC:SANF1:1,2016-02-02T14:50:00Z,24.4560,-81.8770,25.1,1111122 
NDBC,ioos:station:NOAA.NDBC:SANF1:1,2016-02-02T15:50:00Z,24.4560,-81.8770,25.1,1111122 
NDBC,ioos:station:NOAA.NDBC:SANF1:1,2016-02-02T16:50:00Z,24.4560,-81.8770,25.2,1111122 
NDBC,ioos:station:NOAA.NDBC:SANF1:1,2016-02-02T18:50:00Z,24.4560,-81.8770,25.0,1111122 
NDBC,ioos:station:NOAA.NDBC:SANF1:1,2016-02-02T19:50:00Z,24.4560,-81.8770,25.0,1111122 
NDBC,ioos:station:NOAA.NDBC:SANF1:1,2016-02-02T20:50:00Z,24.4560,-81.8770,25.1,1111122 
NDBC,ioos:station:NOAA.NDBC:SANF1:1,2016-02-02T21:50:00Z,24.4560,-81.8770,25.0,1111122 
NDBC,ioos:station:NOAA.NDBC:SANF1:1,2016-02-02T22:50:00Z,24.4560,-81.8770,25.0,1111122 
NDBC,ioos:station:NOAA.NDBC:SANF1:1,2016-02-02T23:50:00Z,24.4560,-81.8770,25.0,1111122 
NDBC,ioos:station:NOAA.NDBC:SANF1:1,2016-02-03T01:50:00Z,24.4560,-81.8770,25.0,1111122 
NDBC,ioos:station:NOAA.NDBC:SANF1:1,2016-02-03T02:50:00Z,24.4560,-81.8770,25.0,1111122 
NDBC,ioos:station:NOAA.NDBC:SANF1:1,2016-02-03T03:50:00Z,24.4560,-81.8770,25.2,1111122 
NDBC,ioos:station:NOAA.NDBC:SANF1:1,2016-02-03T04:50:00Z,24.4560,-81.8770,25.2,1111122 
NDBC,ioos:station:NOAA.NDBC:SANF1:1,2016-02-03T06:50:00Z,24.4560,-81.8770,25.0,1111122 
NDBC,ioos:station:NOAA.NDBC:SANF1:1,2016-02-03T07:50:00Z,24.4560,-81.8770,25.0,1111122 
NDBC,ioos:station:NOAA.NDBC:SANF1:1,2016-02-03T08:50:00Z,24.4560,-81.8770,25.0,1111122 
NDBC,ioos:station:NOAA.NDBC:SANF1:1,2016-02-03T09:50:00Z,24.4560,-81.8770,25.1,1111122 
NDBC,ioos:station:NOAA.NDBC:SANF1:1,2016-02-03T10:50:00Z,24.4560,-81.8770,25.0,1111122 
NDBC,ioos:station:NOAA.NDBC:SANF1:1,2016-02-03T11:50:00Z,24.4560,-81.8770,25.1,1111122 
NDBC,ioos:station:NOAA.NDBC:SANF1:1,2016-02-03T13:50:00Z,24.4560,-81.8770,25.3,1111122 
NDBC,ioos:station:NOAA.NDBC:SANF1:1,2016-02-03T14:50:00Z,24.4560,-81.8770,25.4,1111122 
NDBC,ioos:station:NOAA.NDBC:SANF1:1,2016-02-03T15:50:00Z,24.4560,-81.8770,25.4,1111122 
NDBC,ioos:station:NOAA.NDBC:SANF1:1,2016-02-03T16:50:00Z,24.4560,-81.8770,25.3,1111122 
NDBC,ioos:station:NOAA.NDBC:SANF1:1,2016-02-03T17:50:00Z,24.4560,-81.8770,25.1,1111122 
NDBC,ioos:station:NOAA.NDBC:SANF1:1,2016-02-03T18:50:00Z,24.4560,-81.8770,25.0,1111122 
NDBC,ioos:station:NOAA.NDBC:SANF1:1,2016-02-03T19:50:00Z,24.4560,-81.8770,25.0,1111122 
NDBC,ioos:station:NOAA.NDBC:SANF1:1,2016-02-03T20:50:00Z,24.4560,-81.8770,25.2,1111122 
NDBC,ioos:station:NOAA.NDBC:SANF1:1,2016-02-03T22:50:00Z,24.4560,-81.8770,25.2,1111122 
NDBC,ioos:station:NOAA.NDBC:SANF1:1,2016-02-03T23:50:00Z,24.4560,-81.8770,25.0,1111122 
NDBC,ioos:station:NOAA.NDBC:SANF1:1,2016-02-04T00:50:00Z,24.4560,-81.8770,25.0,1111122 
NDBC,ioos:station:NOAA.NDBC:SANF1:1,2016-02-04T01:50:00Z,24.4560,-81.8770,24.8,1111122 
NDBC,ioos:station:NOAA.NDBC:SANF1:1,2016-02-04T02:50:00Z,24.4560,-81.8770,24.8,1111122 
NDBC,ioos:station:NOAA.NDBC:SANF1:1,2016-02-04T03:50:00Z,24.4560,-81.8770,24.8,1111122 
NDBC,ioos:station:NOAA.NDBC:SANF1:1,2016-02-04T05:50:00Z,24.4560,-81.8770,25.1,1111122 
NDBC,ioos:station:NOAA.NDBC:SANF1:1,2016-02-04T06:50:00Z,24.4560,-81.8770,25.0,1111122 
NDBC,ioos:station:NOAA.NDBC:SANF1:1,2016-02-04T07:50:00Z,24.4560,-81.8770,25.1,1111122 
NDBC,ioos:station:NOAA.NDBC:SANF1:1,2016-02-04T08:50:00Z,24.4560,-81.8770,25.1,1111122 
NDBC,ioos:station:NOAA.NDBC:SANF1:1,2016-02-04T09:50:00Z,24.4560,-81.8770,25.2,1111122 
NDBC,ioos:station:NOAA.NDBC:SANF1:1,2016-02-04T10:50:00Z,24.4560,-81.8770,25.1,1111122 
NDBC,ioos:station:NOAA.NDBC:SANF1:1,2016-02-04T11:50:00Z,24.4560,-81.8770,25.2,1111122 
NDBC,ioos:station:NOAA.NDBC:SANF1:1,2016-02-04T12:50:00Z,24.4560,-81.8770,25.2,1111122 
NDBC,ioos:station:NOAA.NDBC:SANF1:1,2016-02-04T13:50:00Z,24.4560,-81.8770,25.5,1111122 
NDBC,ioos:station:NOAA.NDBC:SANF1:1,2016-02-04T14:50:00Z,24.4560,-81.8770,25.7,1111122 
NDBC,ioos:station:NOAA.NDBC:SANF1:1,2016-02-04T15:50:00Z,24.4560,-81.8770,25.4,1111122 
NDBC,ioos:station:NOAA.NDBC:SANF1:1,2016-02-04T16:50:00Z,24.4560,-81.8770,25.4,1111122 
NDBC,ioos:station:NOAA.NDBC:SANF1:1,2016-02-04T17:50:00Z,24.4560,-81.8770,25.4,1111122 
NDBC,ioos:station:NOAA.NDBC:SANF1:1,2016-02-04T19:50:00Z,24.4560,-81.8770,25.4,1111122 
NDBC,ioos:station:NOAA.NDBC:SANF1:1,2016-02-04T20:50:00Z,24.4560,-81.8770,25.4,1111122 
NDBC,ioos:station:NOAA.NDBC:SANF1:1,2016-02-04T21:50:00Z,24.4560,-81.8770,25.6,1111122 
NDBC,ioos:station:NOAA.NDBC:SANF1:1,2016-02-04T22:50:00Z,24.4560,-81.8770,25.4,1111122 
NDBC,ioos:station:NOAA.NDBC:SANF1:1,2016-02-04T23:50:00Z,24.4560,-81.8770,25.5,1111122 
NDBC,ioos:station:NOAA.NDBC:SANF1:1,2016-02-05T00:50:00Z,24.4560,-81.8770,25.7,1111122 
NDBC,ioos:station:NOAA.NDBC:SANF1:1,2016-02-05T01:50:00Z,24.4560,-81.8770,25.6,1111122 
NDBC,ioos:station:NOAA.NDBC:SANF1:1,2016-02-05T02:50:00Z,24.4560,-81.8770,25.5,1111122 
NDBC,ioos:station:NOAA.NDBC:SANF1:1,2016-02-05T04:50:00Z,24.4560,-81.8770,25.4,1111122 
NDBC,ioos:station:NOAA.NDBC:SANF1:1,2016-02-05T05:50:00Z,24.4560,-81.8770,20.7,1111122 
NDBC,ioos:station:NOAA.NDBC:SANF1:1,2016-02-05T06:50:00Z,24.4560,-81.8770,20.0,1111122 
NDBC,ioos:station:NOAA.NDBC:SANF1:1,2016-02-05T07:50:00Z,24.4560,-81.8770,18.9,1111122 
NDBC,ioos:station:NOAA.NDBC:SANF1:1,2016-02-05T08:50:00Z,24.4560,-81.8770,18.5,1111122 
NDBC,ioos:station:NOAA.NDBC:SANF1:1,2016-02-05T09:50:00Z,24.4560,-81.8770,18.9,1111122 
NDBC,ioos:station:NOAA.NDBC:SANF1:1,2016-02-05T11:50:00Z,24.4560,-81.8770,17.5,1111122 
NDBC,ioos:station:NOAA.NDBC:SANF1:1,2016-02-05T12:50:00Z,24.4560,-81.8770,17.3,1111122 
NDBC,ioos:station:NOAA.NDBC:SANF1:1,2016-02-05T13:50:00Z,24.4560,-81.8770,16.8,1111122 
NDBC,ioos:station:NOAA.NDBC:SANF1:1,2016-02-05T15:50:00Z,24.4560,-81.8770,16.4,1111122 
NDBC,ioos:station:NOAA.NDBC:SANF1:1,2016-02-05T16:50:00Z,24.4560,-81.8770,16.1,1111122 
NDBC,ioos:station:NOAA.NDBC:SANF1:1,2016-02-05T17:50:00Z,24.4560,-81.8770,16.3,1111122 
NDBC,ioos:station:NOAA.NDBC:SANF1:1,2016-02-05T18:50:00Z,24.4560,-81.8770,16.6,1111122 
NDBC,ioos:station:NOAA.NDBC:SANF1:1,2016-02-05T20:50:00Z,24.4560,-81.8770,17.7,1111122 
NDBC,ioos:station:NOAA.NDBC:SANF1:1,2016-02-05T21:50:00Z,24.4560,-81.8770,17.9,1111122 
NDBC,ioos:station:NOAA.NDBC:SANF1:1,2016-02-05T22:50:00Z,24.4560,-81.8770,18.0,1111122 
NDBC,ioos:station:NOAA.NDBC:SANF1:1,2016-02-06T00:50:00Z,24.4560,-81.8770,17.8,1111122 
NDBC,ioos:station:NOAA.NDBC:SANF1:1,2016-02-06T01:50:00Z,24.4560,-81.8770,18.0,1111122 
NDBC,ioos:station:NOAA.NDBC:SANF1:1,2016-02-06T02:50:00Z,24.4560,-81.8770,18.5,1111122 
NDBC,ioos:station:NOAA.NDBC:SANF1:1,2016-02-06T04:50:00Z,24.4560,-81.8770,18.8,1111122 
NDBC,ioos:station:NOAA.NDBC:SANF1:1,2016-02-06T05:50:00Z,24.4560,-81.8770,18.8,1111122 
NDBC,ioos:station:NOAA.NDBC:SANF1:1,2016-02-06T06:50:00Z,24.4560,-81.8770,18.7,1111122 
NDBC,ioos:station:NOAA.NDBC:SANF1:1,2016-02-06T07:50:00Z,24.4560,-81.8770,18.7,1111122 
NDBC,ioos:station:NOAA.NDBC:SANF1:1,2016-02-06T08:50:00Z,24.4560,-81.8770,18.4,1111122 
NDBC,ioos:station:NOAA.NDBC:SANF1:1,2016-02-06T09:50:00Z,24.4560,-81.8770,18.5,1111122 
NDBC,ioos:station:NOAA.NDBC:SANF1:1,2016-02-06T10:50:00Z,24.4560,-81.8770,18.7,1111122 
NDBC,ioos:station:NOAA.NDBC:SANF1:1,2016-02-06T11:50:00Z,24.4560,-81.8770,18.8,1111122 
NDBC,ioos:station:NOAA.NDBC:SANF1:1,2016-02-06T12:50:00Z,24.4560,-81.8770,19.1,1111122 
NDBC,ioos:station:NOAA.NDBC:SANF1:1,2016-02-06T13:50:00Z,24.4560,-81.8770,19.5,1111122 
NDBC,ioos:station:NOAA.NDBC:SANF1:1,2016-02-06T14:50:00Z,24.4560,-81.8770,20.3,1111122 
NDBC,ioos:station:NOAA.NDBC:SANF1:1,2016-02-06T15:50:00Z,24.4560,-81.8770,20.6,1111122 
NDBC,ioos:station:NOAA.NDBC:SANF1:1,2016-02-06T16:50:00Z,24.4560,-81.8770,19.9,1111122 
NDBC,ioos:station:NOAA.NDBC:SANF1:1,2016-02-06T17:50:00Z,24.4560,-81.8770,19.5,1111122 
NDBC,ioos:station:NOAA.NDBC:SANF1:1,2016-02-06T18:50:00Z,24.4560,-81.8770,18.8,1111122 
NDBC,ioos:station:NOAA.NDBC:SANF1:1,2016-02-06T19:50:00Z,24.4560,-81.8770,18.7,1111122 
NDBC,ioos:station:NOAA.NDBC:SANF1:1,2016-02-06T20:50:00Z,24.4560,-81.8770,18.6,1111122 
NDBC,ioos:station:NOAA.NDBC:SANF1:1,2016-02-06T21:50:00Z,24.4560,-81.8770,18.6,1111122 
NDBC,ioos:station:NOAA.NDBC:SANF1:1,2016-02-06T22:50:00Z,24.4560,-81.8770,18.5,1111122 
NDBC,ioos:station:NOAA.NDBC:SANF1:1,2016-02-06T23:50:00Z,24.4560,-81.8770,18.5,1111122 
NDBC,ioos:station:NOAA.NDBC:SANF1:1,2016-02-07T00:50:00Z,24.4560,-81.8770,18.5,1111122 
NDBC,ioos:station:NOAA.NDBC:SANF1:1,2016-02-07T01:50:00Z,24.4560,-81.8770,18.3,1111122 
NDBC,ioos:station:NOAA.NDBC:SANF1:1,2016-02-07T02:50:00Z,24.4560,-81.8770,18.4,1111122 
NDBC,ioos:station:NOAA.NDBC:SANF1:1,2016-02-07T03:50:00Z,24.4560,-81.8770,19.0,1111122 
NDBC,ioos:station:NOAA.NDBC:SANF1:1,2016-02-07T04:50:00Z,24.4560,-81.8770,18.6,1111122 
NDBC,ioos:station:NOAA.NDBC:SANF1:1,2016-02-07T05:50:00Z,24.4560,-81.8770,18.8,1111122 
NDBC,ioos:station:NOAA.NDBC:SANF1:1,2016-02-07T07:50:00Z,24.4560,-81.8770,17.8,1111122 
NDBC,ioos:station:NOAA.NDBC:SANF1:1,2016-02-07T08:50:00Z,24.4560,-81.8770,18.3,1111122 
NDBC,ioos:station:NOAA.NDBC:SANF1:1,2016-02-07T09:50:00Z,24.4560,-81.8770,18.5,1111122 
NDBC,ioos:station:NOAA.NDBC:SANF1:1,2016-02-07T10:50:00Z,24.4560,-81.8770,18.1,1111122 
NDBC,ioos:station:NOAA.NDBC:SANF1:1,2016-02-07T11:50:00Z,24.4560,-81.8770,17.6,1111122 
NDBC,ioos:station:NOAA.NDBC:SANF1:1,2016-02-07T12:50:00Z,24.4560,-81.8770,14.7,1111122 
NDBC,ioos:station:NOAA.NDBC:SANF1:1,2016-02-07T13:50:00Z,24.4560,-81.8770,15.1,1111122 
NDBC,ioos:station:NOAA.NDBC:SANF1:1,2016-02-07T14:50:00Z,24.4560,-81.8770,16.3,1111122 
NDBC,ioos:station:NOAA.NDBC:SANF1:1,2016-02-07T15:50:00Z,24.4560,-81.8770,16.6,1111122 
NDBC,ioos:station:NOAA.NDBC:SANF1:1,2016-02-07T17:50:00Z,24.4560,-81.8770,17.1,1111122 
NDBC,ioos:station:NOAA.NDBC:SANF1:1,2016-02-07T19:50:00Z,24.4560,-81.8770,16.3,1111122 
NDBC,ioos:station:NOAA.NDBC:SANF1:1,2016-02-07T20:50:00Z,24.4560,-81.8770,16.5,1111122 
NDBC,ioos:station:NOAA.NDBC:SANF1:1,2016-02-07T21:50:00Z,24.4560,-81.8770,16.4,1111122 
NDBC,ioos:station:NOAA.NDBC:SANF1:1,2016-02-07T22:50:00Z,24.4560,-81.8770,16.3,1111122 
NDBC,ioos:station:NOAA.NDBC:SANF1:1,2016-02-07T23:50:00Z,24.4560,-81.8770,16.4,1111122 
NDBC,ioos:station:NOAA.NDBC:SANF1:1,2016-02-08T00:50:00Z,24.4560,-81.8770,16.5,1111122 
NDBC,ioos:station:NOAA.NDBC:SANF1:1,2016-02-08T02:50:00Z,24.4560,-81.8770,16.7,1111122 
NDBC,ioos:station:NOAA.NDBC:SANF1:1,2016-02-08T03:50:00Z,24.4560,-81.8770,16.9,1111122 
NDBC,ioos:station:NOAA.NDBC:SANF1:1,2016-02-08T04:50:00Z,24.4560,-81.8770,16.8,1111122 
NDBC,ioos:station:NOAA.NDBC:SANF1:1,2016-02-08T05:50:00Z,24.4560,-81.8770,16.9,1111122 
NDBC,ioos:station:NOAA.NDBC:SANF1:1,2016-02-08T06:50:00Z,24.4560,-81.8770,16.8,1111122 
NDBC,ioos:station:NOAA.NDBC:SANF1:1,2016-02-08T07:50:00Z,24.4560,-81.8770,17.0,1111122 
NDBC,ioos:station:NOAA.NDBC:SANF1:1,2016-02-08T08:50:00Z,24.4560,-81.8770,16.9,1111122 
NDBC,ioos:station:NOAA.NDBC:SANF1:1,2016-02-08T09:50:00Z,24.4560,-81.8770,17.0,1111122 
NDBC,ioos:station:NOAA.NDBC:SANF1:1,2016-02-08T10:50:00Z,24.4560,-81.8770,17.0,1111122 
NDBC,ioos:station:NOAA.NDBC:SANF1:1,2016-02-08T11:50:00Z,24.4560,-81.8770,17.3,1111122 
NDBC,ioos:station:NOAA.NDBC:SANF1:1,2016-02-08T12:50:00Z,24.4560,-81.8770,15.3,1111122 
NDBC,ioos:station:NOAA.NDBC:SANF1:1,2016-02-08T13:50:00Z,24.4560,-81.8770,15.0,1111122 
NDBC,ioos:station:NOAA.NDBC:SANF1:1,2016-02-08T14:50:00Z,24.4560,-81.8770,15.2,1111122 
NDBC,ioos:station:NOAA.NDBC:SANF1:1,2016-02-08T15:50:00Z,24.4560,-81.8770,15.6,1111122 
NDBC,ioos:station:NOAA.NDBC:SANF1:1,2016-02-08T16:50:00Z,24.4560,-81.8770,15.9,1111122 
NDBC,ioos:station:NOAA.NDBC:SANF1:1,2016-02-08T17:50:00Z,24.4560,-81.8770,16.9,1111122 
NDBC,ioos:station:NOAA.NDBC:SANF1:1,2016-02-08T18:50:00Z,24.4560,-81.8770,18.0,1111122 
NDBC,ioos:station:NOAA.NDBC:SANF1:1,2016-02-08T19:50:00Z,24.4560,-81.8770,18.2,1111122 
NDBC,ioos:station:NOAA.NDBC:SANF1:1,2016-02-08T20:50:00Z,24.4560,-81.8770,18.6,1111122 
NDBC,ioos:station:NOAA.NDBC:SANF1:1,2016-02-08T21:50:00Z,24.4560,-81.8770,19.2,1111122 
NDBC,ioos:station:NOAA.NDBC:SANF1:1,2016-02-08T22:50:00Z,24.4560,-81.8770,19.6,1111122 
NDBC,ioos:station:NOAA.NDBC:SANF1:1,2016-02-08T23:50:00Z,24.4560,-81.8770,19.6,1111122 
NDBC,ioos:station:NOAA.NDBC:SANF1:1,2016-02-09T01:50:00Z,24.4560,-81.8770,20.2,1111122 
NDBC,ioos:station:NOAA.NDBC:SANF1:1,2016-02-09T02:50:00Z,24.4560,-81.8770,20.3,1111122 
NDBC,ioos:station:NOAA.NDBC:SANF1:1,2016-02-09T03:50:00Z,24.4560,-81.8770,20.5,1111122 
NDBC,ioos:station:NOAA.NDBC:SANF1:1,2016-02-09T05:50:00Z,24.4560,-81.8770,21.7,1111122 
NDBC,ioos:station:NOAA.NDBC:SANF1:1,2016-02-09T07:50:00Z,24.4560,-81.8770,22.2,1111122 
NDBC,ioos:station:NOAA.NDBC:SANF1:1,2016-02-09T08:50:00Z,24.4560,-81.8770,21.0,1111122 
NDBC,ioos:station:NOAA.NDBC:SANF1:1,2016-02-09T09:50:00Z,24.4560,-81.8770,21.3,1111122 
NDBC,ioos:station:NOAA.NDBC:SANF1:1,2016-02-09T10:50:00Z,24.4560,-81.8770,21.1,1111122 
NDBC,ioos:station:NOAA.NDBC:SANF1:1,2016-02-09T11:50:00Z,24.4560,-81.8770,19.4,1111122 
NDBC,ioos:station:NOAA.NDBC:SANF1:1,2016-02-09T12:50:00Z,24.4560,-81.8770,19.2,1111122 
NDBC,ioos:station:NOAA.NDBC:SANF1:1,2016-02-09T14:50:00Z,24.4560,-81.8770,18.9,1111122 
NDBC,ioos:station:NOAA.NDBC:SANF1:1,2016-02-09T16:50:00Z,24.4560,-81.8770,18.7,1111122 
NDBC,ioos:station:NOAA.NDBC:SANF1:1,2016-02-09T17:50:00Z,24.4560,-81.8770,18.8,1111122 
NDBC,ioos:station:NOAA.NDBC:SANF1:1,2016-02-09T18:50:00Z,24.4560,-81.8770,18.7,1111122 
NDBC,ioos:station:NOAA.NDBC:SANF1:1,2016-02-09T20:50:00Z,24.4560,-81.8770,18.7,1111122 
NDBC,ioos:station:NOAA.NDBC:SANF1:1,2016-02-09T21:50:00Z,24.4560,-81.8770,18.8,1111122 
NDBC,ioos:station:NOAA.NDBC:SANF1:1,2016-02-09T22:50:00Z,24.4560,-81.8770,18.7,1111122 
NDBC,ioos:station:NOAA.NDBC:SANF1:1,2016-02-09T23:50:00Z,24.4560,-81.8770,18.8,1111122 
NDBC,ioos:station:NOAA.NDBC:SANF1:1,2016-02-10T00:50:00Z,24.4560,-81.8770,19.1,1111122 
NDBC,ioos:station:NOAA.NDBC:SANF1:1,2016-02-10T01:50:00Z,24.4560,-81.8770,20.2,1111122 
NDBC,ioos:station:NOAA.NDBC:SANF1:1,2016-02-10T02:50:00Z,24.4560,-81.8770,19.6,1111122 
NDBC,ioos:station:NOAA.NDBC:SANF1:1,2016-02-10T03:50:00Z,24.4560,-81.8770,19.6,1111122 
NDBC,ioos:station:NOAA.NDBC:SANF1:1,2016-02-10T04:50:00Z,24.4560,-81.8770,20.0,1111122 
NDBC,ioos:station:NOAA.NDBC:SANF1:1,2016-02-10T05:50:00Z,24.4560,-81.8770,19.7,1111122 
NDBC,ioos:station:NOAA.NDBC:SANF1:1,2016-02-10T06:50:00Z,24.4560,-81.8770,20.0,1111122 
NDBC,ioos:station:NOAA.NDBC:SANF1:1,2016-02-10T07:50:00Z,24.4560,-81.8770,19.7,1111122 
NDBC,ioos:station:NOAA.NDBC:SANF1:1,2016-02-10T08:50:00Z,24.4560,-81.8770,19.4,1111122 
NDBC,ioos:station:NOAA.NDBC:SANF1:1,2016-02-10T09:50:00Z,24.4560,-81.8770,18.9,1111122 
NDBC,ioos:station:NOAA.NDBC:SANF1:1,2016-02-10T10:50:00Z,24.4560,-81.8770,18.7,1111122 
NDBC,ioos:station:NOAA.NDBC:SANF1:1,2016-02-10T11:50:00Z,24.4560,-81.8770,18.3,1111122 
NDBC,ioos:station:NOAA.NDBC:SANF1:1,2016-02-10T12:50:00Z,24.4560,-81.8770,18.2,1111122 
NDBC,ioos:station:NOAA.NDBC:SANF1:1,2016-02-10T13:50:00Z,24.4560,-81.8770,18.3,1111122 
NDBC,ioos:station:NOAA.NDBC:SANF1:1,2016-02-10T15:50:00Z,24.4560,-81.8770,18.8,1111122 
NDBC,ioos:station:NOAA.NDBC:SANF1:1,2016-02-10T16:50:00Z,24.4560,-81.8770,18.3,1111122 
NDBC,ioos:station:NOAA.NDBC:SANF1:1,2016-02-10T17:50:00Z,24.4560,-81.8770,17.2,1111122 
NDBC,ioos:station:NOAA.NDBC:SANF1:1,2016-02-10T18:50:00Z,24.4560,-81.8770,17.2,1111122 
NDBC,ioos:station:NOAA.NDBC:SANF1:1,2016-02-10T19:50:00Z,24.4560,-81.8770,17.3,1111122 
NDBC,ioos:station:NOAA.NDBC:SANF1:1,2016-02-10T20:50:00Z,24.4560,-81.8770,17.2,1111122 
NDBC,ioos:station:NOAA.NDBC:SANF1:1,2016-02-10T21:50:00Z,24.4560,-81.8770,16.9,1111122 
NDBC,ioos:station:NOAA.NDBC:SANF1:1,2016-02-10T23:50:00Z,24.4560,-81.8770,16.5,1111122 
NDBC,ioos:station:NOAA.NDBC:SANF1:1,2016-02-11T00:50:00Z,24.4560,-81.8770,16.7,1111122 
NDBC,ioos:station:NOAA.NDBC:SANF1:1,2016-02-11T01:50:00Z,24.4560,-81.8770,16.9,1111122 
NDBC,ioos:station:NOAA.NDBC:SANF1:1,2016-02-11T02:50:00Z,24.4560,-81.8770,17.0,1111122 
NDBC,ioos:station:NOAA.NDBC:SANF1:1,2016-02-11T03:50:00Z,24.4560,-81.8770,17.2,1111122 
NDBC,ioos:station:NOAA.NDBC:SANF1:1,2016-02-11T04:50:00Z,24.4560,-81.8770,16.9,1111122 
NDBC,ioos:station:NOAA.NDBC:SANF1:1,2016-02-11T05:50:00Z,24.4560,-81.8770,16.1,1111122 
NDBC,ioos:station:NOAA.NDBC:SANF1:1,2016-02-11T07:50:00Z,24.4560,-81.8770,15.6,1111122 
NDBC,ioos:station:NOAA.NDBC:SANF1:1,2016-02-11T09:50:00Z,24.4560,-81.8770,15.4,1111122 
NDBC,ioos:station:NOAA.NDBC:SANF1:1,2016-02-11T10:50:00Z,24.4560,-81.8770,15.3,1111122 
NDBC,ioos:station:NOAA.NDBC:SANF1:1,2016-02-11T11:50:00Z,24.4560,-81.8770,15.1,1111122 
NDBC,ioos:station:NOAA.NDBC:SANF1:1,2016-02-11T12:50:00Z,24.4560,-81.8770,15.1,1111122 
NDBC,ioos:station:NOAA.NDBC:SANF1:1,2016-02-11T16:50:00Z,24.4560,-81.8770,14.9,1111122 
NDBC,ioos:station:NOAA.NDBC:SANF1:1,2016-02-11T17:50:00Z,24.4560,-81.8770,14.7,1111122 
NDBC,ioos:station:NOAA.NDBC:SANF1:1,2016-02-11T18:50:00Z,24.4560,-81.8770,15.0,1111122 
NDBC,ioos:station:NOAA.NDBC:SANF1:1,2016-02-11T19:54:00Z,24.4560,-81.8770,15.1,1111122 
NDBC,ioos:station:NOAA.NDBC:SANF1:1,2016-02-11T20:49:00Z,24.4560,-81.8770,15.7,1111122 
NDBC,ioos:station:NOAA.NDBC:SANF1:1,2016-02-11T21:50:00Z,24.4560,-81.8770,16.0,1111122 
NDBC,ioos:station:NOAA.NDBC:SANF1:1,2016-02-11T22:50:00Z,24.4560,-81.8770,16.7,1111122 
NDBC,ioos:station:NOAA.NDBC:SANF1:1,2016-02-11T23:50:00Z,24.4560,-81.8770,16.9,1111122 
NDBC,ioos:station:NOAA.NDBC:SANF1:1,2016-02-12T00:50:00Z,24.4560,-81.8770,17.2,1111122 
NDBC,ioos:station:NOAA.NDBC:SANF1:1,2016-02-12T01:50:00Z,24.4560,-81.8770,17.4,1111122 
NDBC,ioos:station:NOAA.NDBC:SANF1:1,2016-02-12T02:50:00Z,24.4560,-81.8770,17.4,1111122 
NDBC,ioos:station:NOAA.NDBC:SANF1:1,2016-02-12T03:50:00Z,24.4560,-81.8770,17.2,1111122 
NDBC,ioos:station:NOAA.NDBC:SANF1:1,2016-02-12T04:50:00Z,24.4560,-81.8770,17.8,1111122 
NDBC,ioos:station:NOAA.NDBC:SANF1:1,2016-02-12T05:50:00Z,24.4560,-81.8770,17.8,1111122 
NDBC,ioos:station:NOAA.NDBC:SANF1:1,2016-02-12T06:50:00Z,24.4560,-81.8770,17.6,1111122 
NDBC,ioos:station:NOAA.NDBC:SANF1:1,2016-02-12T07:50:00Z,24.4560,-81.8770,17.9,1111122 
NDBC,ioos:station:NOAA.NDBC:SANF1:1,2016-02-12T08:50:00Z,24.4560,-81.8770,17.9,1111122 
NDBC,ioos:station:NOAA.NDBC:SANF1:1,2016-02-12T09:50:00Z,24.4560,-81.8770,17.8,1111122 
NDBC,ioos:station:NOAA.NDBC:SANF1:1,2016-02-12T10:50:00Z,24.4560,-81.8770,17.8,1111122 
NDBC,ioos:station:NOAA.NDBC:SANF1:1,2016-02-12T11:50:00Z,24.4560,-81.8770,17.8,1111122 
NDBC,ioos:station:NOAA.NDBC:SANF1:1,2016-02-12T12:50:00Z,24.4560,-81.8770,18.1,1111122 
NDBC,ioos:station:NOAA.NDBC:SANF1:1,2016-02-12T13:50:00Z,24.4560,-81.8770,17.9,1111122 
NDBC,ioos:station:NOAA.NDBC:SANF1:1,2016-02-12T15:50:00Z,24.4560,-81.8770,18.2,1111122 
NDBC,ioos:station:NOAA.NDBC:SANF1:1,2016-02-12T16:50:00Z,24.4560,-81.8770,18.6,1111122 
NDBC,ioos:station:NOAA.NDBC:SANF1:1,2016-02-12T17:50:00Z,24.4560,-81.8770,18.6,1111122 
NDBC,ioos:station:NOAA.NDBC:SANF1:1,2016-02-12T18:50:00Z,24.4560,-81.8770,19.2,1111122 
NDBC,ioos:station:NOAA.NDBC:SANF1:1,2016-02-12T19:50:00Z,24.4560,-81.8770,19.1,1111122 
NDBC,ioos:station:NOAA.NDBC:SANF1:1,2016-02-12T21:50:00Z,24.4560,-81.8770,19.4,1111122 
NDBC,ioos:station:NOAA.NDBC:SANF1:1,2016-02-12T22:50:00Z,24.4560,-81.8770,19.3,1111122 
NDBC,ioos:station:NOAA.NDBC:SANF1:1,2016-02-12T23:50:00Z,24.4560,-81.8770,19.4,1111122 
NDBC,ioos:station:NOAA.NDBC:SANF1:1,2016-02-13T00:50:00Z,24.4560,-81.8770,19.2,1111122 
NDBC,ioos:station:NOAA.NDBC:SANF1:1,2016-02-13T01:50:00Z,24.4560,-81.8770,19.2,1111122 
NDBC,ioos:station:NOAA.NDBC:SANF1:1,2016-02-13T02:50:00Z,24.4560,-81.8770,19.3,1111122 
NDBC,ioos:station:NOAA.NDBC:SANF1:1,2016-02-13T03:50:00Z,24.4560,-81.8770,19.2,1111122 
NDBC,ioos:station:NOAA.NDBC:SANF1:1,2016-02-13T04:50:00Z,24.4560,-81.8770,19.0,1111122 
NDBC,ioos:station:NOAA.NDBC:SANF1:1,2016-02-13T06:50:00Z,24.4560,-81.8770,18.8,1111122 
NDBC,ioos:station:NOAA.NDBC:SANF1:1,2016-02-13T07:50:00Z,24.4560,-81.8770,18.7,1111122 
NDBC,ioos:station:NOAA.NDBC:SANF1:1,2016-02-13T08:50:00Z,24.4560,-81.8770,18.6,1111122 
NDBC,ioos:station:NOAA.NDBC:SANF1:1,2016-02-13T10:50:00Z,24.4560,-81.8770,18.6,1111122 
NDBC,ioos:station:NOAA.NDBC:SANF1:1,2016-02-13T11:50:00Z,24.4560,-81.8770,18.4,1111122 
NDBC,ioos:station:NOAA.NDBC:SANF1:1,2016-02-13T13:50:00Z,24.4560,-81.8770,18.6,1111122 
NDBC,ioos:station:NOAA.NDBC:SANF1:1,2016-02-13T14:50:00Z,24.4560,-81.8770,18.6,1111122 
NDBC,ioos:station:NOAA.NDBC:SANF1:1,2016-02-13T15:50:00Z,24.4560,-81.8770,18.7,1111122 
NDBC,ioos:station:NOAA.NDBC:SANF1:1,2016-02-13T16:50:00Z,24.4560,-81.8770,18.7,1111122 
NDBC,ioos:station:NOAA.NDBC:SANF1:1,2016-02-13T17:50:00Z,24.4560,-81.8770,19.0,1111122 
NDBC,ioos:station:NOAA.NDBC:SANF1:1,2016-02-13T18:50:00Z,24.4560,-81.8770,19.1,1111122 
NDBC,ioos:station:NOAA.NDBC:SANF1:1,2016-02-13T19:50:00Z,24.4560,-81.8770,19.3,1111122 
NDBC,ioos:station:NOAA.NDBC:SANF1:1,2016-02-13T21:50:00Z,24.4560,-81.8770,19.5,1111122 
NDBC,ioos:station:NOAA.NDBC:SANF1:1,2016-02-13T22:50:00Z,24.4560,-81.8770,19.4,1111122 
NDBC,ioos:station:NOAA.NDBC:SANF1:1,2016-02-13T23:50:00Z,24.4560,-81.8770,19.3,1111122 
NDBC,ioos:station:NOAA.NDBC:SANF1:1,2016-02-14T00:50:00Z,24.4560,-81.8770,19.3,1111122 
NDBC,ioos:station:NOAA.NDBC:SANF1:1,2016-02-14T01:50:00Z,24.4560,-81.8770,19.1,1111122 
NDBC,ioos:station:NOAA.NDBC:SANF1:1,2016-02-14T02:50:00Z,24.4560,-81.8770,18.8,1111122 
NDBC,ioos:station:NOAA.NDBC:SANF1:1,2016-02-14T03:50:00Z,24.4560,-81.8770,18.7,1111122 
NDBC,ioos:station:NOAA.NDBC:SANF1:1,2016-02-14T04:50:00Z,24.4560,-81.8770,18.8,1111122 
NDBC,ioos:station:NOAA.NDBC:SANF1:1,2016-02-14T05:50:00Z,24.4560,-81.8770,18.6,1111122 
NDBC,ioos:station:NOAA.NDBC:SANF1:1,2016-02-14T06:50:00Z,24.4560,-81.8770,18.2,1111122 
NDBC,ioos:station:NOAA.NDBC:SANF1:1,2016-02-14T07:50:00Z,24.4560,-81.8770,17.8,1111122 
NDBC,ioos:station:NOAA.NDBC:SANF1:1,2016-02-14T08:50:00Z,24.4560,-81.8770,18.1,1111122 
NDBC,ioos:station:NOAA.NDBC:SANF1:1,2016-02-14T10:50:00Z,24.4560,-81.8770,17.6,1111122 
NDBC,ioos:station:NOAA.NDBC:SANF1:1,2016-02-14T11:50:00Z,24.4560,-81.8770,18.1,1111122 
NDBC,ioos:station:NOAA.NDBC:SANF1:1,2016-02-14T13:50:00Z,24.4560,-81.8770,18.1,1111122 
NDBC,ioos:station:NOAA.NDBC:SANF1:1,2016-02-14T14:50:00Z,24.4560,-81.8770,18.7,1111122 
NDBC,ioos:station:NOAA.NDBC:SANF1:1,2016-02-14T15:50:00Z,24.4560,-81.8770,19.4,1111122 
NDBC,ioos:station:NOAA.NDBC:SANF1:1,2016-02-14T16:50:00Z,24.4560,-81.8770,20.0,1111122 
NDBC,ioos:station:NOAA.NDBC:SANF1:1,2016-02-14T17:50:00Z,24.4560,-81.8770,20.0,1111122 
NDBC,ioos:station:NOAA.NDBC:SANF1:1,2016-02-14T19:50:00Z,24.4560,-81.8770,20.3,1111122 